Dewpoint
6 8 8 9 9 9 8 8 8 8 7 6 4 2 -0 -2 -6 -4 -2 -3 -0 2 -0 -8 -7 -8 -9 -12 -14 -14 -11 -10 -10 -9 -9 -8 -5 -1 0 4 5 5 8 9 9
5 7 8 9 9 9 8 8 8 7 7 6 4 1 1 -1 -7 0 -2 -4 -1 1 -1 -6 -6 -5 -7 -9 -11 -13 -11 -11 -11 -11 -11 -9 -6 -2 1 3 5 6 7 9 6
5 8 9 9 9 9 8 8 8 8 7 6 3 2 2 -0 -7 -3 -2 -1 -1 -0 -4 -5 -5 -5 -6 -6 -6 -11 -11 -12 -12 -12 -12 -11 -5 -4 -3 -2 5 6 7 6 3
5 8 9 9 8 8 8 8 8 8 8 7 3 3 2 -0 -7 -12 -1 -0 -2 -1 -4 -4 -5 -5 -5 -4 -4 -4 -8 -7 -10 -12 -13 -12 -5 -3 -3 -4 1 7 6 4 2
6 7 7 7 8 8 8 8 7 8 8 6 3 3 1 -2 -2 -9 -3 -1 -2 -1 -3 -4 -5 -5 -4 -4 -4 -5 -6 -6 -7 -7 -12 -11 -5 -4 -1 -1 4 5 4 4 2
7 7 7 8 8 8 7 7 7 8 8 5 3 3 -3 -3 -4 -5 -3 -3 -3 -3 -2 -2 -3 -4 -4 -4 -3 -4 -4 -4 -4 -6 -7 -6 -4 -4 -1 2 4 3 3 3 1
9 9 10 9 9 9 8 8 7 8 6 4 3 -1 -4 -3 -7 -10 -10 -4 -2 -2 0 -2 -3 -4 -4 -3 -3 -4 -3 -4 -4 -4 -5 -6 -2 -4 -2 0 0 1 1 1 -0
10 9 9 9 8 8 8 9 9 7 6 0 -1 -5 -6 -4 -5 -4 -7 -6 -6 -4 -0 0 -4 -4 -4 -3 -4 -4 -4 -2 -4 -5 -6 -9 -3 -4 -2 -1 -1 -1 -2 -2 -2
9 9 9 9 8 8 8 8 7 5 -2 -4 -3 -3 -4 -6 -6 -3 -1 -2 -3 -2 -2 -0 -4 -4 -4 -2 -1 -2 -1 -2 -3 -6 -6 -8 -4 -7 -2 -2 -2 -2 -2 -2 -2
8 8 7 7 7 7 6 5 1 -5 -5 1 3 1 -2 -2 -2 -4 -1 -2 -2 -3 -3 -3 -4 -4 -3 -1 1 0 -1 -2 -3 -6 -8 -8 -7 -4 -3 -3 -3 -3 -3 -2 -2
5 5 5 4 3 1 1 -2 -5 -1 1 -0 2 0 -2 -2 -2 -3 -3 -2 -5 -3 -3 -4 -2 -1 -2 -2 -2 -2 -1 -1 -3 -5 -4 -5 -7 -8 -3 -4 -4 -4 -3 -2 -1
2 3 3 3 3 4 4 -4 -3 -0 -0 -2 -3 -2 -3 -1 -0 -3 -1 -1 -4 -3 -4 -4 -2 -3 -3 -3 -2 -1 -0 0 -2 -4 -4 -4 -4 -5 -4 -4 -4 -4 -4 -3 -1
0 -1 1 0 2 1 2 -2 -1 -5 -1 -0 -4 -2 -4 -5 2 -3 -2 -3 -6 -5 -5 -2 -4 -5 -5 -5 -4 -3 -0 0 -1 -3 -4 -3 -2 -3 -5 -4 -4 -5 -5 -3 -2
1 2 2 3 2 2 -0 -1 0 0 -2 -5 -7 -5 -4 -5 -6 -9 -5 -2 -5 -5 -6 -5 -6 -5 -6 -5 -5 -1 -3 -4 -3 -3 0 -4 1 -3 -5 -4 -4 -4 -4 -3 -2
2 2 2 3 -1 1 2 1 2 -5 1 -7 -7 -5 -6 -8 -5 -4 -4 -3 -3 -4 -4 -2 -5 -5 -4 -4 -4 -2 -4 -3 -3 -3 -2 -2 -1 -4 -7 -7 -4 -3 -4 -3 -2
1 1 2 2 1 2 3 2 1 -1 -3 -6 -4 -4 -5 -6 -5 -3 -4 -5 -5 -5 -4 -4 -6 -6 -5 -6 -5 -5 -4 -3 -2 -2 1 -2 -1 -2 -3 -0 0 -2 -2 -1 -1
1 1 2 1 -1 2 2 2 -2 -2 -6 -4 -2 -3 -1 -2 -2 -3 -2 -2 -2 -1 -1 -4 -4 -6 -6 -5 -6 -5 -3 1 -1 1 0 -3 -4 -2 0 1 1 -1 -2 -1 -1
1 1 1 0 -1 1 2 -2 -0 -2 -5 -9 -10 -9 -2 0 1 -1 -1 -0 -3 -4 -3 -1 -2 -5 -6 -5 -4 -3 -3 1 2 3 1 -5 -4 -6 0 -1 -2 -2 -2 -2 -1
0 0 -0 0 -1 2 2 3 -1 -3 -5 -8 -9 -8 -4 -1 -0 -0 -0 -1 -3 -4 -2 -4 -5 -9 -8 -7 -6 -3 -1 -3 -1 -2 -0 -3 -4 1 -0 -1 -3 -3 -3 -3 -2
0 0 -1 -2 -1 3 2 2 -1 -3 -7 -8 -8 -8 -2 -1 0 -0 -1 -4 -3 -5 -6 -6 -5 -8 -10 -9 -9 -6 -6 -4 -2 -1 -0 -3 -4 -4 2 1 -1 -2 -3 -3 -2
1 -0 -2 -2 0 3 3 0 -2 -4 -6 -6 -6 -5 -6 -5 -5 -5 -5 -8 -10 -10 -9 -9 -7 -8 -10 -8 -6 -7 -6 -5 -4 -2 -1 0 -1 -4 1 1 -0 -2 -3 -3 -3
1 1 -0 0 1 -0 0 -1 -3 -6 -8 -7 -6 -6 -5 -6 -7 -8 -6 -5 -9 -11 -9 -8 -6 -6 -8 -10 -9 -9 -8 -6 -1 -4 -0 0 -0 -4 -0 0 -1 -1 -3 -3 -3
0 0 1 1 -0 -0 -1 -1 -2 -4 -5 -7 -7 -7 -8 -9 -6 -6 -8 -9 -10 -9 -8 -9 -5 -1 -7 -10 -6 -6 -8 -6 -5 -3 -3 -1 -2 -3 1 1 -0 -1 -2 -2 -3
1 0 1 2 -0 -2 -1 -1 -1 -3 -5 -6 -5 -6 -8 -8 -8 -7 -7 -7 -10 -8 -8 -7 -4 -5 -2 -6 -4 -4 -6 -7 -5 -1 -2 -2 -2 -3 -2 -0 -1 -2 -2 -1 -2
0 -0 -0 -1 1 1 -1 -1 -2 -2 -4 -5 -9 -7 -6 -4 -6 -6 -8 -8 -6 -9 -6 -7 -6 -5 -3 -4 -4 -5 -6 -6 -4 -4 -2 -4 -4 -5 -3 -3 -4 -6 -6 -2 -1
-1 -0 0 0 1 1 1 2 -1 -1 -2 -3 -3 -6 -6 -5 -6 -7 -4 -4 -6 -3 -5 -5 -6 -5 -5 -5 -3 -1 -2 -2 -1 -1 -1 -2 -2 -4 -5 -5 -4 -4 -1 -1 -1
-0 -1 1 -1 -1 1 -0 0 -1 -1 -1 -3 -2 -1 -3 -3 -5 -6 -5 -3 -3 -1 -0 -0 -2 1 -3 -2 -1 1 -1 -2 -3 -3 -2 -1 -3 -4 -3 -2 0 -1 -1 -1 -1
Wind_Speed
8 9 10 11 12 14 16 18 20 21 22 24 27 26 27 29 27 17 4 3 11 18 16 14 6 11 9 3 2 1 4 1 2 1 3 3 3 2 5 9 5 1 11 14 29
10 10 11 13 14 15 17 20 21 22 22 25 26 27 26 29 28 9 5 5 13 17 14 15 17 19 9 5 4 3 3 7 4 2 3 2 5 8 4 6 7 11 11 32 27
11 12 12 14 15 17 18 20 22 22 23 25 27 26 27 26 15 5 8 11 15 13 11 13 13 14 7 9 6 1 4 3 3 2 2 4 4 6 10 2 9 22 34 30 26
13 13 14 16 18 20 20 20 21 21 23 25 27 29 28 24 3 10 8 10 12 9 9 10 11 6 5 6 10 5 4 4 2 2 1 2 8 6 4 5 13 28 30 31 29
16 17 18 19 21 22 23 23 22 22 22 24 26 29 31 21 14 8 11 10 7 10 9 10 11 8 3 4 11 1 5 13 11 6 2 6 3 6 5 11 23 28 28 29 28
19 20 20 22 23 25 28 28 26 24 22 23 25 29 26 13 11 8 13 13 10 11 10 8 5 7 4 4 0 7 11 18 11 10 5 6 3 2 9 23 28 30 29 29 29
23 24 25 24 25 26 26 27 26 23 20 23 23 25 28 27 11 17 17 16 12 11 11 8 6 4 7 6 5 9 5 8 8 5 5 10 3 6 18 27 28 28 29 31 31
28 28 27 31 29 29 30 22 18 21 23 22 22 21 17 23 14 12 11 14 15 13 12 8 7 9 3 6 7 5 3 3 5 2 2 10 7 13 26 31 30 30 30 30 28
25 27 28 28 25 25 21 20 18 22 21 21 18 12 14 9 7 8 7 7 8 5 10 9 8 3 1 2 4 4 4 4 8 3 2 2 7 4 33 31 28 33 32 29 25
24 20 17 15 15 15 18 18 16 15 14 13 10 6 10 3 7 4 6 8 9 7 1 6 2 3 3 3 4 4 3 4 6 5 3 2 8 2 19 20 24 20 28 27 27
7 7 10 11 8 9 9 8 6 5 7 9 8 12 19 25 19 14 7 5 8 4 4 1 2 6 7 6 4 5 4 7 7 6 4 3 5 5 15 11 13 18 25 27 27
14 14 10 9 14 20 15 8 2 5 16 25 26 31 37 31 18 29 16 8 7 6 2 2 8 8 5 5 6 8 9 7 6 3 2 6 8 8 9 16 29 30 24 29 29
15 15 14 11 13 15 13 7 5 9 7 15 26 19 23 16 22 31 22 6 6 4 5 8 5 1 4 5 5 6 6 5 5 3 1 4 5 5 5 13 15 21 22 28 35
12 16 15 16 12 10 4 3 2 5 3 7 6 6 5 9 7 16 26 17 5 8 6 8 9 11 11 7 7 6 4 3 3 1 4 3 8 5 5 5 5 14 21 32 38
5 8 11 9 2 4 5 9 5 2 3 2 4 0 3 9 4 2 10 17 10 7 6 7 1 1 2 4 5 6 5 5 5 3 1 2 3 2 2 3 1 9 20 31 40
5 5 7 9 9 6 8 7 2 5 8 6 2 2 2 4 1 2 2 4 4 6 6 8 6 3 4 3 1 1 1 4 3 3 2 8 8 4 1 2 5 3 10 23 31
5 3 6 6 9 12 10 7 4 4 4 3 3 3 3 3 2 2 3 3 5 1 5 3 16 8 12 8 2 4 4 2 3 1 5 3 2 7 1 4 6 4 15 23 32
6 6 8 7 10 14 14 4 4 5 5 4 4 5 4 3 5 4 3 4 4 2 1 4 6 8 5 18 10 7 9 5 6 4 3 4 5 4 1 3 3 10 18 24 30
7 7 10 9 12 14 14 7 7 5 3 5 6 4 4 4 6 4 5 5 6 9 7 3 5 3 2 3 10 5 5 6 3 0 2 4 4 2 2 2 3 11 20 26 32
9 7 13 7 15 12 3 13 6 5 5 5 2 3 4 4 3 5 5 4 6 9 8 3 2 2 4 2 4 5 6 3 2 3 4 4 4 5 5 7 6 10 19 28 32
10 2 4 13 20 9 9 11 5 18 14 4 3 5 5 4 3 3 3 4 5 1 7 4 4 3 1 1 1 4 2 4 3 4 4 2 5 5 9 10 14 16 27 34 37
11 3 3 19 9 6 11 5 4 13 19 9 5 5 4 3 4 1 6 2 17 4 1 1 3 3 5 2 3 2 3 3 3 3 2 3 7 3 8 9 16 22 32 34 35
7 6 6 24 7 8 5 4 10 5 3 4 4 4 3 4 4 5 7 2 4 3 2 1 0 1 4 2 4 4 3 3 2 2 4 2 7 4 5 4 20 22 26 33 35
8 2 6 22 9 7 5 6 6 7 19 17 6 7 5 3 5 6 4 1 7 6 2 1 3 5 5 3 2 4 4 1 4 2 4 9 13 5 6 7 15 26 28 30 37
9 5 5 3 5 8 10 4 11 7 12 9 8 14 11 5 3 4 4 2 4 8 5 1 5 3 4 5 4 9 13 6 7 8 8 15 16 4 9 11 23 25 18 23 33
9 5 5 3 7 11 6 6 11 8 4 8 10 14 12 13 9 3 4 3 3 1 2 3 3 4 4 6 6 13 10 10 13 14 15 20 24 9 21 18 16 18 14 21 26
19 14 4 5 3 5 7 14 14 5 9 23 15 4 7 6 15 18 10 9 6 5 4 3 3 2 7 2 4 10 7 11 9 6 7 12 17 9 8 8 16 21 21 25 24
Wind_Direction
294 305 315 321 324 330 336 335 336 337 336 336 339 343 342 341 340 339 1 349 346 349 347 345 335 341 321 314 293 245 62 192 256 150 254 185 132 48 96 112 88 92 166 173 162
291 296 305 311 316 321 325 329 331 333 335 333 334 338 342 343 343 16 42 346 334 341 341 359 359 356 353 337 343 88 111 220 216 229 215 109 145 151 133 110 70 99 146 159 164
287 294 300 303 309 314 317 323 325 328 330 328 330 334 336 342 349 12 345 326 323 332 341 354 4 10 343 337 343 350 192 230 280 230 295 111 126 140 134 205 182 159 150 162 167
278 282 287 295 302 304 307 314 317 321 324 324 327 330 333 336 337 311 330 323 332 319 330 354 2 27 25 346 344 341 324 320 319 279 278 223 144 121 179 207 183 165 163 166 175
272 275 281 288 293 295 299 304 308 316 314 319 323 326 332 323 302 294 284 303 335 327 339 2 37 12 4 311 335 289 328 319 305 286 248 177 219 160 150 148 162 165 172 177 181
264 269 274 279 283 290 295 301 305 308 308 314 319 320 325 306 306 269 269 283 311 315 313 333 4 349 288 299 194 304 298 298 303 277 256 156 239 355 168 156 163 171 180 184 186
268 266 268 274 279 281 284 292 297 296 299 308 312 313 309 298 293 284 268 270 293 304 297 332 320 336 325 316 328 292 305 319 287 287 215 140 17 247 185 172 172 180 181 181 186
270 275 278 277 283 279 284 282 290 290 297 301 302 303 286 305 320 323 286 271 274 269 271 290 292 302 242 303 332 348 41 335 283 308 289 165 247 235 185 179 183 185 185 184 187
271 277 278 280 285 289 281 285 289 286 294 290 293 287 275 319 334 339 340 319 312 283 264 254 293 297 13 73 355 358 258 256 314 319 281 184 273 323 183 185 191 196 194 191 185
262 260 264 267 272 276 277 285 288 291 276 275 258 270 256 243 327 311 301 301 293 291 260 232 242 43 20 85 229 231 268 287 275 291 343 204 265 85 194 197 205 202 201 196 189
274 277 276 293 328 341 325 333 315 267 275 237 265 253 263 275 278 256 253 296 259 254 190 223 129 216 222 225 277 303 260 259 267 286 338 306 295 280 187 228 244 219 207 196 186
275 275 286 314 315 304 321 341 318 307 299 285 273 261 265 271 275 254 241 266 191 209 166 341 242 231 203 233 249 275 270 266 274 320 278 319 286 274 179 220 220 221 204 194 182
259 256 265 274 277 287 283 310 293 286 276 286 276 259 262 257 238 256 237 225 204 217 196 202 231 164 207 260 263 251 236 237 230 308 315 323 282 257 242 246 242 236 220 204 195
248 245 243 250 285 269 220 246 271 11 349 276 259 265 234 229 263 241 233 215 195 213 222 247 236 236 254 225 211 239 201 193 170 111 258 72 290 218 235 239 229 241 202 201 195
255 255 247 239 243 152 156 125 105 17 319 233 248 264 216 182 332 359 241 206 205 179 129 232 237 207 228 234 179 235 163 173 173 168 114 281 276 239 150 272 76 314 211 197 194
248 260 252 234 209 188 159 147 153 44 248 307 298 289 159 225 280 138 164 201 251 205 221 229 250 196 222 260 226 38 106 55 63 128 249 206 183 282 197 276 297 13 175 172 173
245 243 256 240 210 191 178 153 43 172 342 291 346 21 310 289 274 201 177 187 187 181 245 239 242 232 232 254 244 156 75 307 321 335 240 238 198 244 268 337 286 193 155 165 177
222 227 241 239 214 186 176 60 196 191 262 320 335 315 247 179 262 230 221 226 233 163 7 219 319 160 194 212 204 194 168 174 234 207 251 330 242 261 55 18 26 146 163 170 174
224 238 244 218 201 189 182 209 214 178 242 329 342 300 280 257 191 201 232 216 213 180 184 201 280 322 100 187 160 185 175 190 144 7 90 228 296 223 131 60 152 152 170 177 182
213 239 276 225 202 199 177 227 218 231 15 356 259 267 301 306 208 179 205 245 228 192 193 235 258 353 317 22 75 169 157 93 16 222 243 259 257 231 221 216 205 200 191 187 186
205 225 267 189 186 191 216 226 286 269 291 310 271 272 279 315 317 284 235 325 337 282 157 163 146 272 355 350 270 358 0 46 135 146 203 274 258 229 200 192 203 209 203 195 194
179 167 242 172 166 206 229 200 316 273 278 252 257 239 242 281 258 105 308 66 326 336 211 350 136 207 227 280 329 189 255 130 135 257 222 172 255 344 223 202 194 206 210 205 205
183 189 192 181 200 215 275 288 249 285 339 270 262 256 221 239 241 237 185 328 302 350 208 233 114 33 327 32 47 49 41 91 113 70 244 175 259 342 19 214 220 224 225 221 217
164 186 213 197 222 193 215 234 253 243 245 258 287 315 295 286 248 233 231 179 158 310 215 49 189 181 209 214 136 240 192 156 154 151 266 239 288 303 270 244 252 254 253 238 226
181 204 193 211 219 229 186 241 233 237 240 256 259 242 249 265 284 258 283 191 221 211 226 229 213 215 216 219 230 261 281 265 224 226 224 267 242 245 234 241 255 279 267 229 223
198 178 198 243 214 198 206 202 233 247 243 263 247 259 227 236 219 250 13 308 218 156 43 356 273 222 248 208 236 265 267 271 258 254 246 259 266 256 266 271 262 263 238 218 221
207 220 203 209 206 199 222 225 230 217 252 256 263 283 255 269 264 267 257 269 269 179 159 206 199 144 269 205 323 280 221 241 255 256 238 262 271 266 275 250 256 266 250 243 229
Height
1557 1557 1555 1556 1554 1553 1552 1551 1548 1545 1543 1540 1536 1533 1528 1523 1520 1515 1514 1516 1515 1512 1509 1505 1503 1501 1499 1499 1498 1498 1510 1515 1503 1500 1496 1495 1495 1497 1497 1498 1501 1501 1502 1503 1508
1556 1555 1554 1555 1553 1551 1550 1550 1548 1544 1542 1539 1535 1533 1528 1523 1519 1517 1517 1516 1515 1512 1510 1505 1502 1500 1500 1499 1499 1499 1512 1505 1495 1492 1493 1493 1492 1494 1497 1498 1502 1502 1502 1505 1508
1554 1554 1553 1552 1551 1550 1549 1547 1547 1544 1541 1538 1534 1531 1528 1523 1518 1520 1518 1517 1514 1512 1511 1507 1504 1502 1503 1502 1501 1501 1505 1497 1493 1493 1491 1491 1492 1494 1496 1499 1498 1500 1502 1507 1510
1551 1551 1550 1550 1549 1548 1547 1545 1544 1542 1540 1536 1534 1530 1527 1524 1526 1518 1517 1515 1513 1512 1510 1507 1504 1503 1506 1507 1503 1504 1498 1498 1495 1493 1492 1491 1491 1491 1493 1492 1493 1497 1499 1501 1505
1548 1548 1547 1546 1546 1545 1544 1543 1541 1540 1538 1535 1532 1529 1525 1523 1518 1515 1514 1513 1513 1513 1510 1507 1505 1506 1508 1506 1503 1502 1500 1499 1496 1493 1491 1490 1490 1488 1490 1490 1493 1497 1500 1501 1504
1544 1544 1544 1543 1542 1541 1541 1540 1539 1538 1537 1533 1530 1528 1526 1524 1516 1513 1511 1511 1513 1512 1511 1509 1506 1506 1506 1504 1505 1501 1499 1496 1493 1492 1493 1492 1492 1491 1492 1492 1494 1495 1497 1500 1504
1540 1540 1540 1539 1538 1537 1536 1535 1536 1535 1533 1531 1527 1525 1521 1518 1514 1511 1510 1508 1510 1511 1510 1509 1507 1506 1506 1502 1502 1500 1500 1494 1488 1487 1487 1489 1498 1494 1490 1492 1493 1495 1498 1501 1504
1537 1537 1537 1537 1535 1534 1533 1532 1531 1532 1531 1528 1525 1522 1517 1513 1509 1507 1506 1507 1506 1508 1509 1508 1507 1505 1504 1503 1501 1502 1501 1505 1489 1486 1484 1486 1497 1485 1488 1490 1492 1494 1497 1500 1503
1534 1535 1535 1533 1532 1532 1531 1530 1529 1528 1527 1525 1523 1520 1511 1510 1508 1508 1507 1508 1507 1506 1506 1507 1508 1505 1503 1507 1512 1509 1513 1506 1497 1486 1486 1488 1489 1483 1484 1487 1489 1489 1494 1498 1502
1531 1531 1532 1532 1531 1529 1529 1527 1526 1524 1522 1520 1519 1520 1509 1507 1507 1506 1506 1506 1506 1505 1505 1505 1505 1508 1510 1513 1522 1512 1509 1506 1506 1491 1485 1487 1487 1485 1489 1490 1487 1491 1494 1497 1500
1530 1530 1531 1532 1531 1529 1529 1526 1526 1524 1519 1515 1513 1508 1502 1502 1504 1503 1504 1503 1504 1504 1505 1503 1508 1510 1509 1508 1506 1508 1509 1510 1501 1490 1488 1485 1487 1483 1486 1491 1491 1492 1493 1496 1500
1528 1528 1529 1529 1531 1530 1528 1528 1527 1526 1517 1510 1505 1502 1498 1501 1498 1495 1502 1503 1500 1503 1503 1506 1507 1498 1499 1502 1506 1506 1508 1507 1496 1490 1489 1489 1489 1483 1485 1483 1481 1482 1488 1493 1498
1524 1525 1526 1526 1527 1527 1527 1528 1524 1523 1520 1501 1496 1492 1490 1493 1491 1486 1494 1496 1498 1500 1501 1505 1498 1495 1497 1498 1502 1502 1505 1500 1499 1493 1490 1491 1491 1483 1479 1478 1479 1482 1485 1490 1491
1519 1520 1520 1524 1527 1524 1525 1525 1525 1524 1526 1501 1492 1486 1486 1490 1488 1482 1485 1492 1494 1497 1499 1497 1491 1493 1495 1496 1496 1500 1490 1491 1496 1498 1506 1492 1500 1481 1477 1477 1478 1479 1481 1482 1487
1517 1518 1519 1521 1523 1524 1526 1524 1524 1524 1533 1494 1489 1487 1486 1489 1487 1484 1485 1488 1487 1490 1495 1494 1489 1490 1493 1491 1488 1492 1487 1491 1492 1500 1501 1497 1505 1482 1479 1477 1478 1479 1477 1478 1481
1517 1516 1517 1520 1522 1524 1524 1524 1526 1537 1530 1496 1488 1488 1489 1486 1485 1484 1485 1487 1487 1489 1487 1486 1487 1489 1489 1486 1486 1486 1490 1494 1498 1502 1516 1496 1497 1493 1485 1480 1480 1479 1479 1482 1484
1515 1515 1517 1519 1519 1522 1524 1525 1540 1543 1503 1494 1491 1491 1491 1489 1486 1485 1485 1487 1492 1495 1495 1484 1481 1480 1484 1489 1487 1488 1497 1511 1511 1511 1505 1489 1493 1485 1481 1485 1484 1480 1481 1482 1485
1513 1515 1515 1517 1519 1520 1523 1528 1538 1508 1505 1496 1495 1491 1493 1487 1488 1485 1485 1488 1486 1487 1494 1494 1487 1475 1471 1475 1480 1486 1492 1505 1504 1507 1502 1492 1493 1481 1484 1484 1484 1480 1482 1484 1486
1511 1513 1514 1514 1517 1520 1523 1525 1515 1507 1500 1498 1494 1495 1493 1486 1486 1487 1487 1484 1480 1483 1490 1492 1487 1468 1468 1468 1472 1482 1489 1481 1493 1499 1509 1494 1483 1483 1482 1484 1487 1485 1484 1483 1484
1510 1511 1511 1515 1515 1517 1520 1510 1508 1503 1501 1498 1501 1496 1496 1492 1490 1489 1486 1477 1476 1476 1476 1478 1486 1474 1472 1469 1470 1473 1474 1490 1498 1498 1501 1493 1488 1485 1482 1482 1485 1487 1483 1482 1484
1509 1511 1510 1509 1514 1518 1512 1507 1506 1502 1504 1505 1500 1499 1495 1494 1490 1490 1483 1478 1476 1473 1473 1475 1483 1481 1474 1476 1478 1479 1480 1483 1486 1497 1499 1505 1498 1474 1471 1474 1478 1479 1479 1476 1477
1504 1509 1508 1511 1515 1513 1509 1509 1507 1504 1504 1503 1499 1497 1494 1492 1489 1490 1488 1479 1478 1477 1476 1475 1482 1487 1480 1474 1477 1477 1479 1482 1499 1489 1499 1508 1494 1468 1467 1467 1472 1473 1472 1474 1476
1503 1505 1506 1510 1510 1509 1509 1508 1507 1504 1501 1500 1497 1495 1491 1491 1493 1488 1481 1482 1482 1480 1479 1477 1484 1495 1485 1481 1479 1485 1485 1487 1488 1496 1495 1512 1484 1470 1468 1470 1470 1469 1469 1470 1471
1502 1505 1506 1505 1504 1504 1508 1506 1505 1500 1499 1500 1500 1496 1494 1490 1486 1483 1481 1478 1479 1482 1479 1479 1484 1483 1492 1483 1485 1489 1487 1486 1488 1508 1498 1489 1479 1477 1472 1471 1467 1463 1462 1463 1464
1496 1499 1500 1501 1499 1502 1502 1498 1497 1500 1497 1497 1494 1496 1496 1491 1486 1486 1481 1477 1478 1476 1481 1480 1483 1482 1482 1480 1482 1481 1480 1483 1486 1486 1490 1469 1474 1467 1468 1463 1457 1454 1453 1453 1456
1492 1496 1498 1497 1496 1496 1497 1493 1494 1495 1496 1492 1492 1487 1489 1488 1485 1484 1482 1483 1478 1479 1478 1479 1483 1481 1480 1478 1479 1480 1478 1476 1474 1473 1473 1467 1457 1460 1455 1454 1451 1448 1447 1447 1449
1489 1493 1494 1492 1492 1493 1489 1488 1486 1491 1491 1491 1490 1488 1484 1484 1481 1480 1478 1480 1479 1476 1477 1482 1483 1485 1480 1477 1480 1481 1474 1468 1463 1463 1464 1463 1451 1453 1450 1447 1447 1444 1442 1441 1443